HULIANWANG DIGUI-22

导读

HULIANWANG DIGUI-22是中国于北京时间2025年4月28日发射的低轨卫星,归属“HU LIAN WANG DIGUI”卫星星座系统。这类低轨星座通常依托大量卫星组网,旨在构建全球覆盖的卫星互联网络,可为全球各类终端用户提供无缝宽带接入服务,支撑天地一体化信息网络建设,服务全球通信、应急等领域应用需求。

Basic Information
目录编号:
63689
目录名称:
HULIANWANG DIGUI-22
国际标识:
2025-086C
轨道中心:
EARTH
卫星名称:
HULIANWANG DIGUI-22
卫星全名:
HULIANWANG DIGUI-22
卫星状态:
在轨 (已飞行455 天)
发射日期:
2025-04-28 UTC
国别 :
中国 (CN)
星等 :
--
Orbit Information
数据来源 国际轨道数据 AOE轨道数据
星历时间 2026-07-27T22:37:23+0800
8小时前
查看轨道信息
2026-07-25T09:00:00+0800
2天前
查看轨道信息
半长轴 7546.056km 7546.05km
偏心率 0.0002274 0.0002262
轨道倾角 86.506° 86.505°
近地点辐角 107.163° 105.832°
升交点赤经 299.443° 300.309°
平近点角 252.975° 259.164°
近地点 1166.203km 1166.206km
远地点 1169.635km 1169.62km
周期 108.728分钟 108.727分钟
每日圈数 13.244111 13.244126
Detailed Information
使用方式:
暂无
2D Orbit Map
3D Orbit Map
Orbit Altitude Analysis Chart
Orbit Inclination Analysis Chart
Orbit Comprehensive Analysis Chart
View Comprehensive Chart